NOAA 16 DEB, 41367

Orbit data source: Space-Track

NOAA 16 DEB, 41367 is space debris in SSO originally from a launch on Thu, 21 Sep 2000 UTC launched from the Air Force Western Test Range (AFWTR). Debris objects in space refer to the collection of defunct objects orbiting the Earth. Examples of debris include non-operational satellites, rocket bodies, and fragments generated from explosions, collisions, or faulty payload assembly.

Loading next visibility...
Identifier
41367, 2000-055JL
Orbit
SSO
Country
Flag of USUS
Related business
Manufacturer
Unknown
Mission
Spacecraft
Bus & Motor
Unknown
Mass
Unknown
Launch date (UTC)
2000-09-21 (26 years ago)
Launch vehicle
Unknown
Launch site
Air Force Western Test Range (AFWTR)
Object type
Payload
Rocket body
Debris
Shape & HBR
Unknown shape, 0.1 m
Radar Cross Section
Medium (>0.1 m² and <1 m²)

Expand to show TLE details & history
Last TLE update: 1 day ago

TLE from 1 day ago
0 NOAA 16 DEB
1 41367U 00055JL  26171.35755737  .00006499  00000-0  14327-2 0  9997
2 41367  98.9944  36.4674 0031633 130.5279 229.8680 14.57442889540588
Epoch: 2026-06-20T08:34Z
TLE epoch observation values (Epoch: 2026-06-20T08:34:52.956Z)
Latitude
-0.00005°
Longitude
-0.82658°
Altitude
718.878 km
Speed
7.488 km/s
True Right ascension
02h 25m 52s
True Declination
0° 00' 00"
Sunlit
Object was in daylight at epoch
Visualization orbit readout
Latitude
Unknown
Longitude
Unknown
Altitude
Unknown
Speed
Unknown
Apparent Right ascension
Unknown
Apparent Declination
Unknown
Sunlit
N/A
Visualization observer readout
Local Sidereal Time
00:10:20
Azimuth
Unknown
Elevation
Unknown
Doppler factor
Unknown
Orbital elements
Apogee altitude
720.951 km
Perigee altitude
676.18 km
Semi-major axis
7,076.703 km
Eccentricity
0.00316
Inclination
98.9944°
RAAN
36.4674°
Arg. of periapsis
130.5279°
True anomaly
229.59156°
Mean anomaly
229.868°
Eccentric anomaly
229.72971°
Mean motion
3.64583 °/min
Orbital period
98.74 mins
BSTAR
0.0014327
Loading maneuver chart data...
Computing Atmospheric mass density...
Loading historical data...
Loading historical data...
Loading historical data...
Loading historical data...
Loading historical data...
Loading historical data...
Loading historical data...

Documentation

Showing up to 5 results
|